Hourly Data Report for February 05, 2020

All times are specified in Local Standard Time (LST). Add 1 hour to adjust for Daylight Saving Time where and when it is observed.

OTTAWA INTL A
ONTARIO
Current Station Operator: NAVCAN

45°19'00.000" N
75°40'00.000" W
114.90 m
6106001
71628
YOW

Download Data

Hourly Data (February 2020)
Hourly Data Report for February 5, 2020
TIME Temp Definition
°C
Dew Point Definition
°C
Rel Hum Definition
%
Wind Dir Definition
10's deg

Wind Spd Definition
km/h
Visibility Definition
km
Stn Press Definition
kPa
Hmdx Definition


Wind Chill Definition


Weather Definition


00:00 -2.2 -7.2 69 33 25 24.1 99.95   -9 LegendNANA
01:00 -3.5 -8.1 70 31 27 24.1 99.99   -11 Mostly Cloudy
02:00 -5.1 -10.0 69 31 18 24.1 100.06   -11 LegendNANA
03:00 -5.1 -10.2 68 32 28 24.1 100.18   -13 LegendNANA
04:00 -6.7 -12.8 62 34 36 24.1 100.33   -16 Mostly Cloudy
05:00 -8.3 -14.4 62 33 34 24.1 100.43   -18 LegendNANA
06:00 -9.1 -14.8 63 34 24 24.1 100.58   -17 LegendNANA
07:00 -10.0 -14.8 68 32 26 24.1 100.70   -19 Mostly Cloudy
08:00 -10.4 -16.3 62 34 24 24.1 100.80   -19 LegendNANA
09:00 -10.5 -17.9 55 33 20 24.1 100.90   -18 LegendNANA
10:00 -10.1 -17.3 56 34 20 24.1 100.92   -18 Clear
11:00 -9.6 -17.4 53 32 17 24.1 100.91   -17 LegendNANA
12:00 -9.2 -17.2 53 35 11 24.1 100.84   -15 LegendNANA
13:00 -9.2 -16.9 54 23 16 24.1 100.82   -16 Mostly Cloudy
14:00 -8.6 -17.0 51 25 11 24.1 100.76   -14 LegendNANA
15:00 -8.2 -16.9 50 25 11 24.1 100.70   -13 LegendNANA
16:00 -8.1 -16.9 50 22 10 24.1 100.73   -13 Mostly Cloudy
17:00 -8.7 -17.4 50 18 3 24.1 100.62   -10 LegendNANA
18:00 -9.1 -17.4 52 14 7 24.1 100.60   -13 LegendNANA
19:00 -10.1 -17.1 57 16 7 24.1 100.58   -14 Mostly Cloudy
20:00 -11.0 -17.3 60 13 7 24.1 100.53   -15 LegendNANA
21:00 -10.7 -16.4 63 11 7 24.1 100.45   -15 LegendNANA
22:00 -10.2 -16.3 62 10 8 24.1 100.33   -15 Cloudy
23:00 -10.2 -15.4 66 11 10 24.1 100.23   -15 LegendNANA

Notes on Data Quality.

Legend

  • E = Estimated
  • M = Missing
  • NA = Not Available*
  • [empty] = Indicates an unobserved value
Date modified: